Location: ????????
(55.5667°N, 37.5833°E)
Time: 20:52:25
(UTC+00:00)

Cosmos 1025 Rocket - Pass Details

Date: 14 April 2026
Orbit: 586 x 609 km, 82.5° (Epoch: 11 May)

Event Time Altitude Azimuth Distance (km) Brightness Sun altitude
Rises 17:59:38 0° 351° (N) 2,831 7.2 -11.6°
Reaches altitude 10° 18:01:56 10° 359° (N) 1,926 6.1 -11.9°
Maximum altitude 18:05:59 42° 71° (ENE) 854 3.5 -12.3°
Enters shadow 18:08:36 20° 133° (SE) 1,404 4.2 -12.6°
